Regional Weather Roundup
Issued by NWS

Home | Current Version | Previous Version | Text Only | Print | Product List | Glossary On
Versions: 1 2 3 4 5 6 7 8 9 10 11 12 13 14 15 16 17 18 19 20 21 22 23 24 25 26 27 28 29 30 31 32 33 34 35 36 37 38 39 40 41 42 43 44 45 46 47 48 49 50
000
ASUS43 KMKX 172159
RWRWI

WISCONSIN REGIONAL WEATHER ROUNDUP
NATIONAL WEATHER SERVICE MILWAUKEE/SULLIVAN WI
500 PM CDT WED APR 17 2024

NOTE: "FAIR" INDICATES FEW OR NO CLOUDS BELOW 12,000 FEET WITH NO
SIGNIFICANT WEATHER AND/OR OBSTRUCTIONS TO VISIBILITY.

WIZ001-002-006>008-014>016-023>028-172300-
NORTHWEST WISCONSIN

CITY           SKY/WX    TMP DP  RH WIND       PRES   REMARKS
SUPERIOR ARPT  CLOUDY    46  42  86 NW8       29.73R TC   8
ASHLAND        CLOUDY    41  38  89 NW14      29.69R TC   5
HAYWARD        CLOUDY    41  39  93 VRB6      29.72R FOG     TC   5
SIREN          CLOUDY    46  40  82 W7        29.75R TC   8
CUMBERLAND     CLOUDY    46  41  81 W15       29.73R TC   8
RICE LAKE      CLOUDY    46  40  79 W14G21    29.75R TC   8
CHETEK         CLOUDY    47  43  87 NW7       29.73R TC   8
LADYSMITH      CLOUDY   N/A N/A N/A W16G23    29.71R
EAU CLAIRE     NOT AVBL
MENOMONIE      CLOUDY    49  41  74 W16G24    29.77R TC  10
NEW RICHMOND   CLOUDY    48  40  74 NW9       29.77R TC   9
OSCEOLA        CLOUDY    49  44  80 W9        29.79R TC  10
$$

WIZ003>005-009-010-017-018-172300-
NORTH CENTRAL WISCONSIN

CITY           SKY/WX    TMP DP  RH WIND       PRES   REMARKS
MANITOWISH WTR LGT RAIN  45  45 100 W8        29.60R TC   7
ARBOR VITAE    LGT RAIN  46  44  95 W8        29.58R TC   8
WOODRUFF       LGT RAIN  46  44  95 W8        29.58R TC   8
RHINELANDER    LGT RAIN  47  43  86 W10       29.60R FOG     TC   8
EAGLE RIVER    CLOUDY    46  46 100 W6        29.57R TC   8
LAND O LAKES   RAIN      46  44  94 CALM      29.58R TC   8
PHILLIPS       DRIZZLE   42  42 100 W6        29.65R TC   6
TOMAHAWK       CLOUDY    47  45  91 W14       29.61R TC   9
MEDFORD        CLOUDY    43  40  89 W16G24    29.66R TC   6
MERRILL        CLOUDY    46  46 100 W13G23    29.62R TC   8
$$

WIZ029-030-035-036-043>047-172300-
CENTRAL WISCONSIN

CITY           SKY/WX    TMP DP  RH WIND       PRES   REMARKS
WAUSAU         CLOUDY    46  43  89 W18G31    29.63R TC   8
MOSINEE        CLOUDY    45  45 100 W18G25    29.64R TC   7
MARSHFIELD     CLOUDY    45  44  97 W21G33    29.69R TC   7
STEVENS POINT  CLOUDY    47  47 100 W20G25    29.66R FOG     TC   8
WAUPACA        CLOUDY    51  46  83 W22G30    29.65R TC  11
WAUTOMA        CLOUDY    49  45  86 W17G31    29.69R TC   9
WISC RAPIDS    CLOUDY    48  42  80 NW16G29   29.71R TC   9
CAMP DOUGLAS   NOT AVBL
$$

WIZ011>013-019>022-031-037>040-048>050-172300-
NORTHEAST WISCONSIN

CITY           SKY/WX    TMP DP  RH WIND       PRES   REMARKS
ANTIGO         RAIN      48  47  99 W14G23    29.58R TC   9
SHAWANO        RAIN      54  50  87 W8G18     29.58R TC  12
OCONTO         CLOUDY    55  53  94 W12       29.56R TC  13
STURGEON BAY   CLOUDY    54  52  93 W9        29.57R TC  12
GREEN BAY      LGT RAIN  54  49  83 W21G30    29.61R TC  12
MANITOWOC      CLOUDY    54  48  80 W26G35    29.62R TC  12
APPLETON       DRIZZLE   52  48  87 W14G24    29.64R TC  11
CLINTONVILLE   LGT RAIN  51  48  90 W15       29.63R TC  11
OSHKOSH        CLOUDY    53  47  79 W14G25    29.65R TC  12
$$

WIZ032>034-041-042-053>061-172300-
SOUTHWEST WISCONSIN

CITY           SKY/WX    TMP DP  RH WIND       PRES   REMARKS
LA CROSSE      CLOUDY    54  42  64 W14G20    29.77R TC  12
SPARTA         NOT AVBL
VIROQUA        CLOUDY    48  41  76 W16       29.77R TC   9
BOSCOBEL       CLOUDY    55  43  63 W16G25    29.79R TC  13
PRAIRIE DU CHI CLOUDY    54  44  68 W17G25    29.80R TC  12
PLATTEVILLE    CLOUDY    53  45  74 W23G36    29.80R TC  12
$$

WIZ056-057-062-063-064-067-068-172300-
SOUTH CENTRAL WISCONSIN

CITY           SKY/WX    TMP DP  RH WIND       PRES   REMARKS
REEDSBURG      CLOUDY    51  43  74 W22G30    29.72R TC  11
BARABOO/DELLS  CLOUDY    53  46  77 W20       29.72R TC  12
LONE ROCK      NOT AVBL
MINERAL POINT  CLOUDY    50  43  76 W23G30    29.79R TC  10
MADISON        CLOUDY    55  44  66 W16G31    29.72R TC  13
MIDDLETON      CLOUDY    56  52  86 W23G33    29.72R TC  13
WATERTOWN      CLOUDY    55  50  81 W16G26    29.69R TC  13
MONROE         CLOUDY    54  50  89 W22G30    29.76R TC  12
JANESVILLE     NOT AVBL
$$

WIZ051-052-058>065-066-070>072-172300-
SOUTHEAST WISCONSIN

CITY           SKY/WX    TMP DP  RH WIND       PRES   REMARKS
MILWAUKEE      CLOUDY    61  48  62 W15G28    29.67R TC  16
WAUKESHA       CLOUDY    55  45  67 W15G35    29.70R TC  13
MILWAUKEE/TIMM CLOUDY    59  48  67 W15G26    29.68R TC  15
RACINE         CLOUDY    60  48  64 W17G35    29.70R TC  16
KENOSHA        CLOUDY    60  50  69 W21G31    29.71R TC  16
FOND DU LAC    CLOUDY    54  46  74 W17G36    29.67R TC  12
SHEBOYGAN      CLOUDY    54  43  66 W23G40    29.64R TC  12
WEST BEND      CLOUDY    55  46  71 W15G29    29.66R TC  13
JUNEAU         CLOUDY    54  45  72 W14G24    29.70R TC  12
$$

LSZ147-162-172300-
LAKE SUPERIOR

STATION/POSITION TIME  TEMP    WIND        PRES    WAVE
                       AIR SEA DIR/SP/G            HT/PER
                 (UTC) (F)     (DEG/KT/KT) (MB)    (FT/S)
DEVILS ISLAND    2100   37     360/ 15/ 16 1004.4R
PORT WING        2140   38      10/ 12/ 14 1006.4R
SAXON HARBOR     2130   40     300/  7/ 10 1004.4R
$$

LMZ867-665-643>646-172300-
LAKE MICHIGAN

STATION/POSITION TIME  TEMP    WIND        PRES    WAVE
                       AIR SEA DIR/SP/G            HT/PER
                 (UTC) (F)     (DEG/KT/KT) (MB)    (FT/S)
CHAMBERS ISLAND  2140   49     200/  5/ 10   N/A
NORTHPORT PIER   2100   44     120/  8/ 12 1000.3
KEWAUNEE LAKESHO 2130   57     270/ 17/ 22  999.7R
SHEBOYGAN LAKESH 2100   60     260/ 26/ 31 1000.7R
PORT WASHINGTON  2140   60     270/ 15/ 28 1005.1R
MILWAUKEE LAKESH 2130   61     260/ 14/ 22   N/A
KENOSHA   LAKESH 2100   61     260/ 12/ 19 1005.1
$$

TC  - TEMPERATURE IN CELSIUS
VSB - VISIBILITY IN STATUTE MILES
WCI - WIND CHILL INDEX
HX  - HEAT INDEX




USA.gov is the U.S. government's official web portal to all federal, state and local government web resources and services.